This is the latest recevied weather packets stored in our database for station/object KE8WMS. If no packets are shown the sender has not sent any weather packets the latest 10 day(s).
| Time | Temp. | Humidity | Pressure | Rain* | Wind** | Luminosity | Snow |
|---|---|---|---|---|---|---|---|
| 1777741981 | 7.22° C | 63% | 1015.1 hPa | 0 mm | - | 891 W/m² | - |
| 1777741679 | 8.33° C | 66% | 1015 hPa | 0 mm | - | 457 W/m² | - |
| 1777741375 | 7.78° C | 65% | 1015.1 hPa | 0 mm | - | 842 W/m² | - |
| 1777741071 | 7.22° C | 63% | 1015.2 hPa | 0 mm | - | 644 W/m² | - |
| 1777740768 | 7.22° C | 65% | 1015.2 hPa | 0 mm | - | 602 W/m² | - |
| 1777740464 | 7.22° C | 64% | 1015.2 hPa | 0 mm | - | 452 W/m² | - |
| 1777740162 | 6.67° C | 64% | 1015.3 hPa | 0 mm | - | 965 W/m² | - |
| 1777739857 | 6.11° C | 68% | 1015.2 hPa | 0 mm | - | 613 W/m² | - |
| 1777739554 | 6.11° C | 66% | 1015.2 hPa | 0 mm | - | 440 W/m² | - |
| 1777739251 | 6.11° C | 69% | 1015.4 hPa | 0 mm | - | 313 W/m² | - |
| 1777738949 | 6.67° C | 68% | 1015.4 hPa | 0 mm | - | 586 W/m² | - |
| 1777738646 | 6.67° C | 68% | 1015.4 hPa | 0 mm | - | 622 W/m² | - |
| 1777738342 | 6.11° C | 71% | 1015.1 hPa | 0 mm | - | 647 W/m² | - |
| 1777738040 | 6.11° C | 70% | 1015.2 hPa | 0 mm | - | 573 W/m² | - |
| 1777737739 | 6.11° C | 72% | 1015.3 hPa | 0 mm | - | 337 W/m² | - |
| 1777737437 | 6.11° C | 71% | 1015.1 hPa | 0 mm | - | 359 W/m² | - |
| 1777737135 | 6.11° C | 75% | 1015.2 hPa | 0 mm | - | 314 W/m² | - |
| 1777736830 | 5.56° C | 74% | 1015.1 hPa | 0 mm | - | 325 W/m² | - |
| 1777736211 | 5.56° C | 76% | 1015.2 hPa | 0 mm | - | 319 W/m² | - |
| 1777735908 | 5° C | 76% | 1015.1 hPa | 0 mm | - | 381 W/m² | - |
| 1777735606 | 5.56° C | 79% | 1015 hPa | 0 mm | - | 316 W/m² | - |
| 1777735303 | 5° C | 80% | 1015.1 hPa | 0 mm | - | 293 W/m² | - |
| 1777735006 | 5° C | 81% | 1015.1 hPa | 0 mm | - | 253 W/m² | - |
| 1777734697 | 4.44° C | 82% | 1014.8 hPa | 0 mm | - | 206 W/m² | - |
| 1777734395 | 4.44° C | 82% | 1014.9 hPa | 0 mm | - | 206 W/m² | - |
* Rain latest hour (hover to see other rain measurements)
** Current wind speed in m/s (hover to see current wind gust speed)